Weather in Posyolok Kirpichnogo Zavoda

Russia / Moscow Oblast     54°51′24″N   37°25′38″E
temp.,
°C
wind,
m/s
gust,
m/s
humid.,
%
clouds,
%
prec.,
mm/h
press.,
hPa
HPBL,
m
5 august, thu
thu500:00+14s117317 0.0 101711
03:00+13sse007540 0.0 101711
06:00+14sse2278100 0.0 101729
09:00+20sse236293 0.0 1017384
12:00+24s3543100 0.0 10161991
15:00+18ssw6972100 0.3 1016377
18:00+18se2378100 0.3 101479
21:00+15ese3685100 0.3 101393
6 august, fri
fri600:00+15sse3890100 0.8 1013147
03:00+15ssw3791100 1.4 1012122
06:00+16sw3795100 1.5 1013233
09:00+17se2496100 4.4 1012176
12:00+17ese4990100 0.7 1012266
15:00+23e3361100 0.7 1010383
18:00+22ne4770100 0.0 1009275
21:00+17ene5118894 0.3 1009216
7 august, sat
sat700:00+16e2496100 2.9 100994
03:00+16ese3694100 5.4 1008103
06:00+18se3893100 0.6 1009172
09:00+22sse478091 0.9 1009279
12:00+26s6956100 0.0 1010748
15:00+23se3768100 0.1 1010270
18:00+25s376588 0.0 1009261
21:00+19ssw238099 0.1 101019
8 august, sun
sun800:00+18ssw3390100 2.3 101038
03:00+17nnw239784 2.7 101160
06:00+17nw2598100 0.5 1012272
09:00+18nw4585100 1.8 1013400
12:00+23wnw45520 0.0 10141089
15:00+25wnw34450 0.0 10141438
18:00+23wnw35550 0.0 1014441
21:00+18w22700 0.0 101617
9 august, mon
mon900:00+16wnw12785 0.0 101611
03:00+15w22756 0.0 101714
06:00+15wsw227899 0.0 101734
09:00+21wnw35645 0.0 1016436
12:00+25wnw34503 0.0 10161456
15:00+27wnw34447 0.0 10151771
18:00+26nw23535 0.0 1014331
21:00+20nw117077 0.0 101511